OBJECT G, 67680

Orbit data source: Space-Track

You're viewing an Uncataloged Satellite

Recently launched and/or uncataloged satellites may have evolving metadata. Metadata may include but not limited to: Owner, Maufacturer, Bus, Motor, and Mission.

OBJECT G, 67680 is a satellite owned by VVKO VKS (CIS) in SSO that was launched on Thu, 05 Feb 2026 UTC via a SOYUZ-2-1B launch vehicle from the Plesetsk Missile And Space Complex (PKMTR). Unknown objects in Earth's orbit typically refer to objects detected orbiting the Earth but have not yet been identified or cataloged. These objects could be anything from previously untracked satellites, spent rocket stages, debris from satellite collisions, or even natural meteoroids temporarily captured by Earth's gravity.

Loading next visibility...
Identifier
67680, 2026-023G
Orbit
SSO
Country
Flag of CISCIS
Related business
Manufacturer
Unknown (RU)
Mission
Spacecraft
Bus & Motor
UNK, Unknown motor
Mass
~500 kg wet, ~500 kg dry
Launch date (UTC)
2026-02-05 (1 month ago)
Launch vehicle
SOYUZ-2-1B
Launch site
Plesetsk Missile And Space Complex (PKMTR)
Object type
Unknown
Shape & HBR
Unknown
Radar Cross Section
RCS unknown

Expand to show TLE details & history
Last TLE update: 15 hours ago

TLE from 15 hours ago
0 OBJECT G
1 67680U 26023G   26071.73858193  .00013613  00000-0  57086-3 0  9993
2 67680  96.6243 146.8001 0023768 108.0266 252.3566 15.23329025  5307
Epoch: 2026-03-12T17:43Z
TLE epoch observation values (Epoch: 2026-03-12T17:43:33.478Z)
Latitude
-0.00001°
Longitude
70.52645°
Altitude
503.912 km
Speed
7.61 km/s
True Right ascension
09h 47m 12s
True Declination
0° 00' 00"
Sunlit
Object was in full shadow at epoch
Visualization orbit readout
Latitude
Unknown
Longitude
Unknown
Altitude
Unknown
Speed
Unknown
Apparent Right ascension
Unknown
Apparent Declination
Unknown
Sunlit
N/A
Visualization observer readout
Local Sidereal Time
13:09:56
Azimuth
Unknown
Elevation
Unknown
Doppler factor
Unknown
Orbital elements
Apogee altitude
509.068 km
Perigee altitude
476.407 km
Semi-major axis
6,870.874 km
Eccentricity
0.00238
Inclination
96.6243°
RAAN
146.8001°
Arg. of periapsis
108.0266°
True anomaly
252.09728°
Mean anomaly
252.3566°
Eccentric anomaly
252.22692°
Mean motion
3.81088 °/min
Orbital period
94.47 mins
BSTAR
0.00057086
Loading maneuver chart data...
Computing Atmospheric mass density...
Loading historical data...
Loading historical data...
Loading historical data...
Loading historical data...
Loading historical data...
Loading historical data...
Loading historical data...

Documentation

Showing up to 5 results
|